N931CD -KJWN

Flight info

Callsign N931CD
Flight time N/A
Altitude VFR/055
Route
Aircraft BE55/L-DOV/C

Departure

Time N/A
Airport -

Arrival

Time 2026-04-26 22:20
Airport John C Tune Airport (KJWN)
Time Latitude Longitude Altitude Speed Heading
2026-04-26 22:10 35.98885 -86.95113 5506 ft 182 kts 32°
2026-04-26 22:10 36.00078 -86.94556 5511 ft 185 kts 15°
2026-04-26 22:11 36.01324 -86.94165 5503 ft 185 kts 17°
2026-04-26 22:11 36.02562 -86.93754 5504 ft 184 kts 17°
2026-04-26 22:11 36.03745 -86.93372 5360 ft 173 kts 16°
2026-04-26 22:11 36.04907 -86.92997 5123 ft 173 kts 17°
2026-04-26 22:12 36.06066 -86.92622 4868 ft 172 kts 16°
2026-04-26 22:12 36.07201 -86.92255 4618 ft 171 kts 17°
2026-04-26 22:12 36.08363 -86.91882 4372 ft 174 kts 15°
2026-04-26 22:12 36.09553 -86.91494 4123 ft 174 kts 17°
2026-04-26 22:13 36.10726 -86.91358 3877 ft 172 kts 359°
2026-04-26 22:13 36.11920 -86.91469 3640 ft 172 kts 358°
2026-04-26 22:13 36.13116 -86.91581 3395 ft 173 kts 358°
2026-04-26 22:13 36.14313 -86.91688 3149 ft 172 kts 358°
2026-04-26 22:14 36.15510 -86.91792 2915 ft 173 kts 358°
2026-04-26 22:14 36.16703 -86.91813 2657 ft 169 kts
2026-04-26 22:14 36.17845 -86.91535 2506 ft 164 kts 15°
2026-04-26 22:14 36.18939 -86.91231 2497 ft 160 kts 15°
2026-04-26 22:15 36.20024 -86.90938 2491 ft 158 kts 14°
2026-04-26 22:15 36.21087 -86.90630 2489 ft 157 kts 14°
2026-04-26 22:15 36.22148 -86.90323 2380 ft 159 kts 15°
2026-04-26 22:15 36.23224 -86.90025 2136 ft 158 kts 15°
2026-04-26 22:16 36.24296 -86.89730 1893 ft 157 kts 15°
2026-04-26 22:16 36.25353 -86.89408 1628 ft 154 kts 21°
2026-04-26 22:16 36.26058 -86.88563 1507 ft 134 kts 73°
2026-04-26 22:16 36.25862 -86.87512 1500 ft 133 kts 132°
2026-04-26 22:17 36.25098 -86.86860 1509 ft 138 kts 146°
2026-04-26 22:17 36.24172 -86.86618 1504 ft 144 kts 193°
2026-04-26 22:17 36.23535 -86.86898 1513 ft 144 kts 196°
2026-04-26 22:17 36.23046 -86.87077 1472 ft 151 kts 194°
2026-04-26 22:18 36.22468 -86.87270 1301 ft 161 kts 193°
2026-04-26 22:18 36.21930 -86.87461 1199 ft 153 kts 194°
2026-04-26 22:18 36.21465 -86.87626 1052 ft 129 kts 191°
2026-04-26 22:18 36.21106 -86.87752 958 ft 118 kts 189°
2026-04-26 22:19 36.20720 -86.87875 949 ft 111 kts 187°
2026-04-26 22:19 36.20286 -86.87999 843 ft 112 kts 190°
2026-04-26 22:19 36.19917 -86.88127 743 ft 109 kts 193°
2026-04-26 22:19 36.19556 -86.88240 682 ft 107 kts 192°
2026-04-26 22:20 36.19192 -86.88356 599 ft 110 kts 193°
2026-04-26 22:20 36.18947 -86.88436 544 ft 109 kts 194°
2026-04-26 22:20 36.18480 -86.88592 489 ft 88 kts 194°
2026-04-26 22:20 36.18091 -86.88720 477 ft 41 kts 194°
2026-04-26 22:21 36.17931 -86.88739 474 ft 13 kts 121°
2026-04-26 22:21 36.17912 -86.88652 474 ft 11 kts 105°